This demonstration page uses our WeatherBlox Daily Observations layout. Learn more.

Left ArrowRight Arrow

39.51506, -84.39828

Hourly Observations for October 10, 2015

Temp ( °F °C ) Dew Point ( °F °C ) Humidity (%) Winds ( mph kmh ) Pressure ( in mb ) Visibility ( mi km ) Precip ( " mm )
12:15 am 00:15 Partly Cloudy 57 13.8 49 9.4 75 75 N N/A 30.18 1022 10 16 N/A
12:35 am 00:35 Clear 55 12.7 48 8.8 77 77 N N/A 30.18 1022 10 16 N/A
12:55 am 00:55 Mostly Cloudy 55 12.5 48 9 79 79 N 3 6 30.18 1022 10 16 N/A
1:15 am 01:15 Mostly Cloudy 55 12.5 48 9.1 80 80 N 5 7 30.18 1022 10 16 N/A
1:35 am 01:35 Partly Cloudy 55 12.5 48 9 79 79 NNE 3 6 30.18 1022 10 16 N/A
1:55 am 01:55 Clear 55 12.5 48 9 79 79 N 5 7 30.18 1022 10 16 N/A
2:15 am 02:15 Clear 55 12.5 47 8.6 77 77 NNE 5 7 30.18 1022 10 16 N/A
2:35 am 02:35 Clear 55 12.5 48 8.7 78 78 NNE 5 7 30.15 1021 10 16 N/A
2:55 am 02:55 Clear 55 12.5 48 8.8 78 78 N 5 7 30.15 1021 10 16 N/A
3:15 am 03:15 Clear 55 12.5 49 9.2 80 80 N 5 7 30.18 1022 10 16 N/A
3:35 am 03:35 Clear 55 12.5 49 9.5 82 82 N 3 6 30.18 1022 10 16 N/A
3:55 am 03:55 Clear 55 12.5 49 9.5 82 82 NNE 3 6 30.18 1022 10 16 N/A
4:15 am 04:15 Clear 55 12.5 49 9.5 82 82 NNE 5 7 30.18 1022 10 16 N/A
4:35 am 04:35 Clear 52 11 47 8.3 84 84 NNE 5 7 30.18 1022 10 16 N/A
4:55 am 04:55 Clear 51 10.5 46 7.9 84 84 NNE 3 6 30.18 1022 10 16 N/A
5:15 am 05:15 Partly Cloudy 50 10.2 46 7.9 86 86 N 5 7 30.18 1022 10 16 N/A
5:35 am 05:35 Mostly Cloudy 51 10.3 46 8 86 86 N 5 7 30.18 1022 10 16 N/A
5:55 am 05:55 Partly Cloudy 49 9.6 45 7.2 85 85 N 5 7 30.21 1023 10 16 N/A
6:15 am 06:15 Mostly Cloudy 49 9.6 45 7.3 86 86 N 6 9 30.21 1023 10 16 N/A
6:35 am 06:35 Mostly Cloudy 49 9.6 45 7.3 86 86 N 6 9 30.21 1023 10 16 N/A
6:55 am 06:55 Mostly Cloudy 49 9.6 46 7.5 87 87 N 6 9 30.21 1023 10 16 N/A
7:15 am 07:15 Cloudy 49 9.6 45 7.4 86 86 N 5 7 30.21 1023 10 16 N/A
7:35 am 07:35 Cloudy 49 9.6 45 7.3 86 86 N 6 9 30.21 1023 10 16 N/A
7:55 am 07:55 Mostly Cloudy 49 9.6 45 7.3 86 86 N 6 9 30.21 1023 10 16 N/A
8:15 am 08:15 Partly Cloudy 49 9.6 45 7.3 86 86 N 6 9 30.21 1023 10 16 N/A
8:35 am 08:35 Sunny 51 10.3 46 7.7 84 84 N N/A 30.21 1023 10 16 N/A
8:55 am 08:55 Sunny 53 11.8 48 8.8 82 82 N N/A 30.21 1023 10 16 N/A
9:15 am 09:15 Sunny 55 12.5 48 8.9 79 79 NNE 7 11 30.24 1024 10 16 N/A
9:35 am 09:35 Sunny 55 12.5 47 8.2 75 75 NNE 6 9 30.24 1024 10 16 N/A
9:55 am 09:55 Sunny 56 13.2 46 7.9 70 70 ENE 7 11 30.24 1024 10 16 N/A
10:15 am 10:15 Sunny 57 13.8 45 7.2 65 65 E 9 15 30.24 1024 10 16 N/A
10:35 am 10:35 Sunny 59 15.1 44 6.7 57 57 ENE 9 15 30.21 1023 10 16 N/A
10:55 am 10:55 Sunny 60 15.3 41 5 50 50 ENE 9 15 30.21 1023 10 16 N/A
11:15 am 11:15 Sunny 61 16 40 4.7 47 47 ENE 8 13 30.21 1023 10 16 N/A
11:35 am 11:35 Sunny 61 16 40 4.3 46 46 NE 8 13 30.21 1023 10 16 N/A
11:55 am 11:55 Sunny 62 16.6 40 4.2 44 44 NE 8 13 30.21 1023 10 16 N/A
12:15 pm 12:15 Sunny 62 16.6 39 4 43 43 NNE 6 9 30.21 1023 10 16 N/A
12:35 pm 12:35 Sunny 63 17.1 39 4.1 42 42 NNE 9 15 30.21 1023 10 16 N/A
12:55 pm 12:55 Sunny 64 17.8 40 4.4 41 41 NNE 7 11 30.18 1022 10 16 N/A
1:15 pm 13:15 Sunny 64 18 38 3.6 39 39 NE 8 13 30.15 1021 7 11 N/A
1:35 pm 13:35 Sunny 64 18 38 3.1 37 37 NNE 8 13 30.15 1021 10 16 N/A
1:55 pm 13:55 Sunny 64 18 37 2.9 37 37 NNE 7 11 30.15 1021 10 16 N/A
2:15 pm 14:15 Sunny 67 19.4 39 3.9 36 36 E 5 7 30.15 1021 10 16 N/A
2:55 pm 14:55 Sunny 69 20.4 38 3.2 32 32 N N/A 30.12 1020 10 16 N/A
3:15 pm 15:15 Sunny 69 20.5 38 3.2 32 32 E 3 6 30.09 1019 10 16 N/A
3:35 pm 15:35 Sunny 69 20.8 38 3.2 31 31 ENE 6 9 30.09 1019 10 16 N/A
3:55 pm 15:55 Sunny 69 20.8 36 2 29 29 NNE 6 9 30.09 1019 10 16 N/A
4:15 pm 16:15 Sunny 69 20.8 36 2.3 30 30 N N/A 30.09 1019 10 16 N/A
4:35 pm 16:35 Sunny 69 20.8 36 2 29 29 N N/A 30.09 1019 10 16 N/A
4:55 pm 16:55 Sunny 69 20.8 36 2.4 30 30 N N/A 30.09 1019 10 16 N/A
5:15 pm 17:15 Sunny 69 20.8 36 2.3 30 30 N N/A 30.09 1019 10 16 N/A
5:35 pm 17:35 Sunny 69 20.8 36 2.3 30 30 N N/A 30.06 1018 10 16 N/A
5:55 pm 17:55 Sunny 69 20.8 38 3.1 31 31 ENE 5 7 30.06 1018 10 16 N/A
6:15 pm 18:15 Sunny 69 20.8 37 2.5 30 30 N N/A 30.06 1018 10 16 N/A
6:35 pm 18:35 Sunny 67 19.5 39 3.7 35 35 N N/A 30.06 1018 10 16 N/A
6:55 pm 18:55 Sunny 61 15.9 44 6.6 54 54 N N/A 30.09 1019 10 16 N/A
7:15 pm 19:15 Clear 59 14.9 47 8.2 64 64 N N/A 30.09 1019 10 16 N/A
7:35 pm 19:35 Clear 55 12.5 46 7.9 74 74 N N/A 30.09 1019 10 16 N/A
7:55 pm 19:55 Clear 55 12.5 46 7.5 72 72 N N/A 30.09 1019 10 16 N/A
8:15 pm 20:15 Clear 54 12.4 48 8.8 79 79 N N/A 30.09 1019 10 16 N/A
8:35 pm 20:35 Clear 52 10.9 44 6.5 75 75 N N/A 30.09 1019 10 16 N/A
8:55 pm 20:55 Clear 52 10.9 45 7.2 78 78 N N/A 30.09 1019 10 16 N/A
9:15 pm 21:15 Clear 49 9.6 45 7 84 84 N N/A 30.09 1019 10 16 N/A
9:35 pm 21:35 Clear 49 9.6 45 7 84 84 N N/A 30.09 1019 10 16 N/A
9:55 pm 21:55 Clear 49 9.6 45 7 84 84 N N/A 30.09 1019 10 16 N/A
10:15 pm 22:15 Clear 49 9.6 45 7.2 85 85 N N/A 30.09 1019 10 16 N/A
10:35 pm 22:35 Clear 49 9.6 45 7.3 86 86 N N/A 30.09 1019 10 16 N/A
10:55 pm 22:55 Clear 48 8.7 44 6.5 86 86 N N/A 30.09 1019 10 16 N/A
11:15 pm 23:15 Clear 47 8.2 43 6.2 87 87 N N/A 30.09 1019 10 16 N/A
11:35 pm 23:35 Clear 47 8.2 43 6.3 88 88 N N/A 30.09 1019 10 16 N/A
11:55 pm 23:55 Clear 46 8 43 6 87 87 N N/A 30.09 1019 10 16 N/A

Powered by AerisWeather